Wind_Speed
14 9 6 10 12 19 23 27 23 23 20 20 19 20 18 16 14 13 12 12 11 8 6 3 4 6 9 8 7 9 8 13 9 6 6 7 5 7 11 14 11 14 13
17 13 9 15 16 22 24 25 23 20 18 14 14 14 15 14 15 14 12 11 9 7 4 4 7 8 9 8 7 7 8 10 11 9 9 5 8 12 14 17 16 14 20
22 15 10 17 21 20 22 20 18 16 14 14 16 16 17 17 17 15 13 9 6 5 5 6 5 7 9 7 6 9 10 11 12 12 8 5 6 5 12 16 16 16 17
19 12 9 14 18 24 23 19 17 15 14 16 17 17 16 18 15 11 10 7 6 5 5 4 5 7 9 12 12 10 11 14 15 14 12 15 18 10 9 10 13 18 19
19 11 11 13 16 17 19 19 18 17 17 18 16 17 16 14 12 12 11 8 8 6 6 5 7 8 6 5 7 7 8 9 11 14 16 13 13 13 13 15 16 12 14
17 12 15 16 16 17 18 19 20 19 20 18 17 17 13 9 11 12 10 7 8 8 7 7 6 5 6 7 7 9 10 9 9 11 13 14 13 7 10 14 15 16 14
23 21 21 20 18 18 19 20 22 23 22 18 16 16 12 12 10 7 5 6 6 6 6 6 6 8 8 7 9 10 9 9 9 9 10 11 13 16 16 15 15 15 17
28 24 24 22 19 19 20 22 23 25 23 20 17 16 15 14 9 4 5 6 5 5 6 6 7 9 8 8 9 10 10 9 9 9 10 10 11 13 15 13 13 12 15
30 26 24 22 20 20 21 21 22 21 20 19 18 18 16 15 13 7 8 8 8 9 12 13 13 13 11 12 11 11 11 12 12 12 12 12 11 13 16 18 16 11 12
31 27 29 24 20 20 22 22 20 19 18 19 20 20 18 14 14 13 15 14 15 16 13 13 13 13 12 13 13 14 12 13 15 15 14 13 12 13 14 16 21 20 14
33 31 35 27 21 20 22 23 22 23 22 20 20 19 16 16 18 19 19 21 19 19 18 17 16 15 14 16 17 17 15 14 15 17 16 15 16 14 13 14 16 19 17
32 29 31 28 25 22 23 26 25 28 23 19 19 19 18 18 18 20 21 19 18 19 19 19 16 14 16 16 17 19 19 17 17 18 16 16 17 15 15 13 14 18 17
32 31 31 30 29 29 30 28 31 24 21 23 23 21 21 22 22 20 21 19 19 20 18 19 18 18 18 17 19 21 21 19 19 21 21 18 18 18 16 13 13 14 15
37 37 36 35 35 34 34 32 28 29 29 24 20 19 20 22 20 19 16 18 19 18 17 16 16 17 18 21 22 23 22 21 22 24 23 22 21 21 16 16 17 17 17
40 41 39 38 37 37 35 32 29 26 25 25 23 17 15 17 19 15 17 19 19 19 20 20 20 21 21 22 24 24 23 25 23 24 25 21 20 20 16 17 18 17 16
38 41 42 40 39 39 37 34 31 33 31 27 21 16 15 18 18 19 21 23 22 20 20 22 23 23 24 25 24 20 20 21 24 24 22 20 17 16 17 18 20 20 18
30 35 42 43 39 35 32 36 34 29 25 20 16 15 14 16 16 17 20 22 22 20 19 20 21 21 22 22 22 21 19 19 22 23 21 16 16 15 17 18 16 17 18
29 23 20 30 24 26 37 35 27 22 15 13 15 14 15 13 17 16 17 18 20 19 19 19 20 20 20 20 20 19 16 17 18 17 15 15 14 15 16 14 13 15 16
22 19 25 29 33 37 38 32 20 13 9 12 6 6 7 9 12 17 21 22 21 20 19 18 16 14 12 13 12 10 12 14 13 14 12 12 12 12 14 15 15 16 16
14 20 25 35 35 29 21 16 17 14 9 7 9 10 18 21 25 23 21 18 16 16 15 14 13 11 8 8 8 8 11 10 10 10 11 11 11 12 13 13 14 13 13
21 24 28 29 25 23 21 13 9 9 8 13 21 23 25 22 18 16 14 14 15 15 13 11 11 8 6 7 8 7 7 9 9 8 8 7 8 8 8 8 8 7 8
23 22 22 20 18 14 11 14 14 15 17 19 19 18 18 16 13 11 12 14 15 14 11 8 8 5 6 7 8 9 8 5 5 4 5 4 4 4 5 6 6 6 6
22 18 15 16 15 14 12 13 14 17 17 18 18 16 13 12 12 11 12 13 14 11 8 7 8 8 7 7 7 5 5 6 6 4 4 3 3 2 3 2 2 2 2
14 13 13 13 12 13 14 13 15 17 17 17 15 13 12 11 9 10 10 11 10 7 7 9 8 7 6 6 5 5 6 7 6 3 2 1 1 2 2 2 2 2 2
14 12 11 9 7 8 11 13 16 15 15 15 14 13 11 10 9 9 10 7 7 8 8 9 9 8 7 4 4 3 6 4 4 3 2 1 2 2 2 3 4 3 2
14 17 13 11 7 10 12 10 13 15 11 13 14 12 9 6 8 12 11 10 10 11 9 9 8 8 7 5 4 3 4 3 2 3 2 3 3 3 2 2 6 4 2
Wind_Direction
169 180 207 206 192 181 194 199 210 209 212 212 213 211 209 213 224 222 200 212 227 237 249 233 182 183 206 211 197 209 218 229 238 253 280 285 260 244 246 252 239 280 249
179 194 209 203 185 181 187 197 206 209 211 221 209 212 214 203 210 192 205 215 227 248 250 237 231 235 238 228 214 206 218 229 248 249 249 254 258 252 228 223 254 243 258
180 188 215 204 198 199 204 207 207 213 210 207 209 202 195 210 203 198 212 206 242 244 264 266 247 242 231 217 226 266 253 246 253 251 267 269 238 246 242 238 242 243 241
172 181 205 211 204 206 212 209 207 203 204 206 203 204 214 202 201 210 199 229 232 232 230 224 236 235 241 263 276 274 268 264 258 253 262 268 274 274 281 267 252 244 242
168 177 203 198 188 193 198 196 187 193 194 188 198 196 195 209 208 204 209 226 210 207 215 230 247 261 273 288 301 306 296 281 266 257 255 251 272 279 273 276 258 250 260
170 182 190 190 187 186 189 189 180 181 184 182 184 194 195 207 209 211 221 209 212 219 237 253 254 273 302 319 318 313 308 301 288 271 265 264 262 282 292 291 285 269 257
174 183 194 190 189 188 188 186 184 178 177 177 174 183 196 223 205 208 218 212 220 238 255 258 267 296 300 307 316 320 311 305 297 286 279 276 263 254 256 272 286 278 275
175 192 197 195 195 192 186 182 178 176 177 175 178 190 199 205 221 226 240 230 238 268 281 256 275 285 285 300 298 304 302 299 294 285 278 273 274 265 261 267 277 268 268
182 193 198 200 198 194 185 179 170 167 170 173 183 192 200 209 223 226 228 237 251 240 230 250 274 277 276 280 284 288 284 287 293 291 282 279 273 265 264 263 268 275 259
182 188 196 199 204 194 179 171 171 176 180 183 195 204 206 206 212 215 222 205 226 244 247 254 264 262 262 276 287 292 286 271 280 290 284 277 272 267 272 265 264 268 270
183 191 195 200 204 198 186 176 186 194 203 206 204 209 214 219 220 223 226 232 239 241 253 254 263 265 264 270 278 286 288 279 269 274 282 272 276 274 273 272 269 271 275
186 192 192 198 198 204 194 187 196 207 210 217 209 207 218 225 229 234 239 243 239 236 242 250 252 253 256 266 269 275 278 276 272 268 266 270 268 282 271 277 278 269 270
192 197 197 197 198 203 199 200 198 199 190 201 207 215 229 231 231 234 239 239 233 235 236 244 243 246 253 257 256 263 266 264 260 262 260 260 261 267 268 270 274 282 274
197 201 202 203 206 205 204 207 213 214 218 223 230 232 232 237 241 236 239 241 233 238 229 235 248 253 256 254 254 255 261 260 263 263 265 259 266 270 266 264 274 273 269
202 205 206 209 209 207 210 214 214 216 211 215 218 230 235 238 234 222 229 231 232 237 235 240 244 247 253 255 256 257 261 266 264 267 269 261 273 262 258 262 266 263 262
204 205 208 209 211 211 210 211 208 199 200 202 203 212 223 225 216 219 227 236 240 248 250 250 253 255 257 262 265 267 261 264 266 267 266 273 271 263 267 269 263 253 242
206 209 217 213 212 206 206 202 195 188 191 190 190 201 217 239 235 240 249 254 256 255 260 264 265 268 268 269 266 260 261 264 265 269 267 266 268 273 273 272 270 266 258
216 218 215 201 199 212 204 186 184 180 175 191 201 219 228 252 264 263 264 263 265 268 270 273 274 275 275 271 268 264 260 258 260 259 265 273 271 271 267 273 280 272 264
214 228 199 198 190 187 178 180 162 173 177 186 192 261 239 243 262 264 262 262 264 269 272 276 279 281 276 278 265 257 255 251 253 268 270 268 264 264 272 280 277 273 267
196 208 189 172 171 166 166 165 149 145 158 247 245 242 258 243 240 244 249 258 269 276 278 285 291 293 282 270 280 260 266 261 259 253 259 265 274 280 283 283 280 283 282
158 164 165 162 157 153 154 165 168 179 190 225 241 247 246 239 241 244 257 271 278 281 284 287 292 293 274 270 270 267 266 259 256 246 255 273 287 293 300 295 289 283 280
146 156 158 161 165 183 197 195 204 201 217 230 226 219 224 229 237 252 266 272 274 274 275 273 281 260 251 252 251 254 256 259 275 307 322 326 318 324 314 304 290 276 277
155 160 167 173 177 192 206 192 194 205 201 200 205 211 216 228 240 251 260 263 264 260 258 252 244 240 250 243 266 224 237 247 254 272 309 317 320 325 332 294 236 194 247
165 171 172 183 191 183 194 194 195 195 203 206 208 213 219 229 245 257 261 262 258 262 265 246 242 236 234 241 267 218 229 228 230 251 250 314 323 34 57 159 182 180 129
164 178 182 182 190 200 212 196 199 212 216 215 216 216 223 236 257 274 290 276 278 264 269 255 247 238 233 233 279 213 208 214 206 178 144 57 37 48 139 153 168 174 191
150 179 188 212 212 218 219 224 221 223 229 230 225 225 230 255 292 276 275 247 249 254 254 238 234 232 229 221 254 219 183 185 147 112 85 85 58 39 96 151 177 206 181
Height
1502 1505 1507 1511 1513 1512 1514 1515 1517 1519 1521 1522 1524 1528 1532 1534 1537 1538 1539 1540 1541 1542 1542 1543 1544 1545 1546 1546 1547 1548 1550 1550 1549 1551 1552 1552 1551 1553 1554 1554 1551 1548 1548
1497 1502 1506 1509 1512 1512 1513 1513 1514 1517 1519 1521 1524 1527 1530 1532 1533 1535 1536 1537 1538 1539 1540 1540 1542 1542 1544 1545 1546 1547 1547 1548 1548 1548 1549 1546 1548 1547 1548 1549 1548 1545 1547
1493 1498 1502 1506 1508 1510 1510 1511 1512 1514 1516 1519 1522 1524 1527 1529 1530 1532 1534 1536 1537 1539 1539 1540 1540 1542 1541 1543 1544 1546 1546 1547 1547 1547 1548 1545 1544 1544 1544 1544 1544 1544 1545
1491 1495 1499 1501 1503 1505 1507 1509 1510 1512 1514 1517 1519 1522 1524 1526 1528 1531 1533 1534 1535 1536 1536 1537 1540 1541 1542 1542 1542 1541 1542 1542 1543 1544 1544 1545 1544 1543 1543 1542 1541 1541 1542
1488 1491 1496 1498 1499 1502 1504 1505 1508 1510 1513 1515 1518 1520 1523 1525 1527 1528 1530 1532 1533 1534 1536 1537 1539 1540 1540 1540 1540 1540 1539 1539 1539 1539 1539 1540 1541 1541 1540 1539 1538 1536 1538
1484 1489 1494 1497 1498 1499 1501 1503 1506 1508 1511 1514 1517 1520 1522 1524 1525 1526 1529 1530 1531 1533 1534 1536 1538 1539 1539 1539 1538 1537 1537 1536 1536 1536 1537 1536 1536 1538 1540 1538 1538 1538 1534
1481 1486 1490 1493 1495 1497 1499 1501 1503 1506 1510 1513 1516 1519 1521 1522 1523 1526 1527 1529 1531 1532 1533 1534 1536 1537 1536 1536 1536 1535 1535 1534 1533 1533 1533 1533 1533 1532 1533 1534 1532 1534 1536
1477 1482 1487 1490 1492 1494 1497 1499 1502 1506 1509 1513 1516 1519 1521 1521 1523 1524 1526 1527 1529 1530 1530 1531 1532 1533 1533 1533 1533 1533 1532 1531 1531 1531 1531 1531 1531 1531 1531 1531 1529 1529 1528
1473 1478 1484 1487 1490 1492 1495 1498 1501 1506 1509 1512 1515 1517 1520 1521 1521 1522 1523 1524 1524 1526 1528 1528 1528 1529 1530 1531 1532 1531 1529 1528 1528 1528 1528 1528 1528 1527 1529 1530 1527 1525 1525
1470 1475 1480 1484 1488 1492 1496 1499 1502 1504 1507 1510 1513 1516 1517 1519 1520 1521 1522 1522 1522 1522 1523 1524 1524 1526 1526 1526 1526 1527 1525 1524 1524 1524 1523 1523 1523 1522 1524 1524 1525 1523 1523
1467 1473 1477 1481 1486 1492 1494 1497 1500 1504 1506 1508 1511 1513 1515 1517 1518 1519 1519 1520 1520 1520 1520 1521 1522 1523 1523 1524 1524 1524 1524 1522 1522 1521 1521 1519 1518 1519 1518 1520 1520 1520 1519
1465 1471 1475 1478 1483 1487 1491 1495 1498 1500 1502 1505 1507 1509 1511 1512 1513 1515 1516 1517 1518 1519 1520 1520 1520 1520 1521 1520 1521 1521 1520 1519 1518 1517 1517 1517 1516 1517 1516 1514 1517 1516 1516
1463 1468 1472 1475 1478 1482 1486 1491 1494 1497 1500 1503 1505 1506 1508 1509 1509 1511 1513 1513 1514 1514 1515 1516 1516 1516 1518 1517 1516 1516 1515 1513 1513 1513 1512 1511 1512 1512 1512 1511 1513 1512 1513
1456 1461 1465 1468 1472 1475 1479 1484 1488 1493 1496 1498 1500 1502 1504 1505 1506 1507 1510 1511 1510 1510 1511 1512 1513 1513 1513 1513 1512 1512 1511 1510 1508 1507 1508 1507 1507 1509 1508 1508 1508 1508 1510
1450 1455 1460 1465 1469 1472 1475 1478 1482 1485 1490 1493 1497 1499 1502 1503 1503 1504 1507 1506 1505 1506 1507 1508 1508 1507 1506 1506 1507 1507 1507 1506 1505 1503 1503 1503 1503 1504 1503 1503 1503 1504 1506
1443 1448 1453 1457 1461 1464 1470 1474 1477 1480 1483 1486 1490 1493 1496 1500 1501 1501 1502 1504 1503 1502 1503 1504 1504 1504 1502 1500 1501 1503 1501 1500 1500 1499 1499 1499 1499 1500 1500 1498 1499 1499 1501
1439 1442 1446 1450 1455 1460 1466 1470 1472 1474 1477 1480 1483 1487 1490 1499 1500 1500 1501 1501 1502 1499 1498 1498 1498 1497 1496 1495 1496 1497 1497 1496 1494 1493 1493 1495 1496 1496 1495 1494 1494 1494 1495
1433 1437 1440 1446 1449 1455 1460 1461 1466 1470 1475 1478 1480 1484 1487 1493 1497 1498 1499 1499 1499 1497 1496 1495 1494 1492 1491 1490 1490 1491 1491 1491 1490 1489 1489 1490 1491 1491 1490 1491 1490 1490 1490
1429 1432 1435 1437 1442 1449 1451 1455 1463 1469 1473 1480 1482 1483 1485 1489 1494 1495 1495 1494 1494 1491 1489 1488 1488 1488 1487 1486 1485 1486 1487 1487 1486 1485 1486 1486 1486 1487 1487 1486 1486 1486 1486
1423 1425 1429 1434 1442 1449 1453 1458 1463 1465 1469 1475 1481 1485 1487 1482 1484 1487 1488 1488 1488 1486 1485 1483 1484 1483 1484 1484 1484 1484 1484 1483 1483 1484 1483 1483 1483 1483 1482 1482 1481 1482 1481
1423 1427 1433 1437 1442 1447 1451 1455 1462 1465 1467 1473 1476 1476 1478 1481 1482 1483 1483 1483 1484 1483 1483 1483 1482 1481 1481 1482 1482 1482 1481 1481 1481 1481 1480 1479 1479 1480 1479 1478 1478 1478 1479
1426 1430 1434 1438 1442 1445 1448 1450 1455 1459 1461 1463 1467 1472 1476 1478 1479 1479 1480 1480 1480 1479 1479 1480 1480 1480 1479 1479 1479 1479 1478 1479 1479 1478 1477 1477 1477 1478 1477 1477 1477 1477 1478
1426 1431 1434 1438 1442 1445 1446 1448 1451 1455 1458 1462 1465 1469 1471 1474 1475 1476 1476 1476 1475 1475 1476 1477 1477 1476 1476 1476 1476 1476 1477 1478 1479 1477 1476 1476 1476 1476 1476 1476 1476 1477 1477
1426 1429 1433 1437 1440 1442 1444 1448 1451 1454 1457 1461 1464 1466 1469 1471 1472 1472 1473 1472 1473 1474 1474 1475 1474 1473 1473 1473 1473 1474 1476 1477 1477 1476 1475 1476 1476 1476 1475 1476 1477 1477 1477
1426 1428 1432 1435 1439 1442 1443 1447 1450 1453 1457 1460 1462 1464 1466 1467 1468 1468 1470 1470 1470 1471 1471 1472 1472 1472 1471 1471 1471 1473 1475 1475 1475 1475 1474 1475 1475 1475 1476 1477 1478 1479 1479
1426 1429 1431 1433 1436 1439 1441 1445 1448 1452 1456 1458 1460 1462 1464 1464 1465 1466 1465 1469 1468 1469 1468 1469 1470 1471 1471 1469 1470 1472 1473 1474 1474 1474 1474 1475 1476 1476 1477 1477 1478 1479 1479